When you browse on this site, cookies collect data to enhance your experience and personalize the content and advertising you see.
Visit our Privacy Policy to learn more. By continuing to use the site, you agree to this use of cookies and data.
  • In Hungary
  • List of Countries
  • For 7 days
  • Water Temperature
  • Weather Map
  • News
  • Weather Widgets
  • user-avatar
    Login

    Hourly Weather Belas

    Today, 13 November, Wednesday

    Time Temperature Precipitation Wind Pressure Humidity
    00:00 +15°C° 0 mm 7 mps 747 mmHg 83%
    01:00 +15°C° 0 mm 7 mps 746 mmHg 83%
    02:00 +15°C° 0 mm 7 mps 746 mmHg 82%
    03:00 +15°C° 0.2 mm 7 mps 745 mmHg 84%
    04:00 +15°C° 0.2 mm 7 mps 745 mmHg 86%
    05:00 +15°C° 0.2 mm 8 mps 745 mmHg 88%
    06:00 +15°C° 0 mm 7 mps 746 mmHg 84%
    07:00 +16°C° 0 mm 7 mps 746 mmHg 81%
    08:00 +16°C° 0 mm 6 mps 746 mmHg 77%
    09:00 +17°C° 0 mm 6 mps 746 mmHg 74%
    10:00 +19°C° 0 mm 6 mps 747 mmHg 70%
    11:00 +18°C° 0 mm 7 mps 747 mmHg 67%
    12:00 +18°C° 0 mm 7 mps 747 mmHg 66%
    13:00 +18°C° 0 mm 7 mps 747 mmHg 65%
    14:00 +17°C° 0 mm 8 mps 747 mmHg 63%
    15:00 +16°C° 0 mm 7 mps 747 mmHg 68%
    16:00 +15°C° 0 mm 7 mps 747 mmHg 72%
    17:00 +12°C° 0 mm 7 mps 748 mmHg 77%
    18:00 +12°C° 0 mm 7 mps 748 mmHg 75%
    19:00 +12°C° 0 mm 7 mps 748 mmHg 74%
    20:00 +12°C° 0 mm 7 mps 748 mmHg 73%
    21:00 +12°C° 0 mm 7 mps 748 mmHg 72%
    22:00 +14°C° 0 mm 7 mps 748 mmHg 71%
    23:00 +14°C° 0 mm 7 mps 748 mmHg 70%

    Tomorrow, 14 November, Thursday

    Time Temperature Precipitation Wind Pressure Humidity
    00:00 +14°C° 0 mm 7 mps 747 mmHg 71%
    01:00 +12°C° 0 mm 8 mps 747 mmHg 71%
    02:00 +12°C° 0 mm 8 mps 746 mmHg 71%
    03:00 +12°C° 0.1 mm 9 mps 746 mmHg 70%
    04:00 +12°C° 0.1 mm 10 mps 745 mmHg 69%
    05:00 +12°C° 0.1 mm 11 mps 745 mmHg 68%
    06:00 +10°C° 0.3 mm 12 mps 745 mmHg 68%
    07:00 +10°C° 0.3 mm 12 mps 745 mmHg 69%
    08:00 +9°C° 0.3 mm 13 mps 746 mmHg 69%
    09:00 +10°C° 0.1 mm 12 mps 746 mmHg 63%
    10:00 +10°C° 0.1 mm 12 mps 746 mmHg 57%
    11:00 +12°C° 0.1 mm 11 mps 746 mmHg 50%
    12:00 +12°C° 0.1 mm 11 mps 746 mmHg 53%
    13:00 +12°C° 0.1 mm 12 mps 746 mmHg 56%
    14:00 +12°C° 0.1 mm 12 mps 745 mmHg 58%
    15:00 +10°C° 0.3 mm 12 mps 745 mmHg 61%
    16:00 +11°C° 0.3 mm 11 mps 745 mmHg 63%
    17:00 +9°C° 0.3 mm 11 mps 745 mmHg 66%
    18:00 +9°C° 0.2 mm 10 mps 745 mmHg 67%
    19:00 +9°C° 0.2 mm 10 mps 745 mmHg 68%
    20:00 +8°C° 0.2 mm 9 mps 745 mmHg 68%
    21:00 +8°C° 0.2 mm 9 mps 745 mmHg 68%
    22:00 +8°C° 0.2 mm 9 mps 745 mmHg 67%
    23:00 +8°C° 0.2 mm 9 mps 745 mmHg 67%

    Day after tomorrow, 15 November, Friday

    Time Temperature Precipitation Wind Pressure Humidity
    00:00 +8°C° 0.4 mm 9 mps 745 mmHg 68%
    01:00 +7°C° 0.4 mm 9 mps 745 mmHg 68%
    02:00 +7°C° 0.4 mm 10 mps 745 mmHg 69%
    03:00 +7°C° 0.4 mm 9 mps 745 mmHg 70%
    04:00 +7°C° 0.4 mm 9 mps 744 mmHg 71%
    05:00 +6°C° 0.4 mm 9 mps 744 mmHg 72%
    06:00 +7°C° 0.1 mm 9 mps 745 mmHg 69%
    07:00 +7°C° 0.1 mm 9 mps 746 mmHg 67%
    08:00 +8°C° 0.1 mm 9 mps 746 mmHg 65%
    09:00 +8°C° 0.2 mm 9 mps 746 mmHg 61%
    10:00 +10°C° 0.2 mm 9 mps 746 mmHg 58%
    11:00 +11°C° 0.2 mm 9 mps 746 mmHg 54%
    12:00 +11°C° 0.1 mm 9 mps 745 mmHg 53%
    13:00 +11°C° 0.1 mm 9 mps 745 mmHg 52%
    14:00 +11°C° 0.1 mm 9 mps 745 mmHg 50%
    15:00 +10°C° 0.1 mm 9 mps 745 mmHg 55%
    16:00 +8°C° 0.1 mm 9 mps 745 mmHg 60%
    17:00 +7°C° 0.1 mm 8 mps 745 mmHg 65%
    18:00 +7°C° 0.1 mm 8 mps 746 mmHg 66%
    19:00 +7°C° 0.1 mm 8 mps 746 mmHg 66%
    20:00 +7°C° 0.1 mm 8 mps 746 mmHg 67%
    21:00 +7°C° 0.1 mm 8 mps 747 mmHg 68%
    22:00 +7°C° 0.1 mm 8 mps 747 mmHg 70%
    23:00 +7°C° 0.1 mm 8 mps 747 mmHg 72%

    16 November, Saturday

    Time Temperature Precipitation Wind Pressure Humidity
    00:00 +6°C° 0 mm 8 mps 747 mmHg 72%
    01:00 +6°C° 0 mm 8 mps 747 mmHg 72%
    02:00 +6°C° 0 mm 8 mps 747 mmHg 72%
    03:00 +6°C° 0 mm 7 mps 747 mmHg 72%
    04:00 +6°C° 0 mm 7 mps 747 mmHg 71%
    05:00 +6°C° 0 mm 7 mps 747 mmHg 71%
    06:00 +8°C° 0 mm 7 mps 748 mmHg 69%
    07:00 +8°C° 0 mm 6 mps 748 mmHg 67%
    08:00 +9°C° 0 mm 6 mps 749 mmHg 65%
    09:00 +10°C° 0 mm 5 mps 749 mmHg 61%
    10:00 +12°C° 0 mm 5 mps 749 mmHg 56%
    11:00 +14°C° 0 mm 5 mps 749 mmHg 51%
    12:00 +14°C° 0 mm 5 mps 749 mmHg 51%
    13:00 +14°C° 0 mm 5 mps 749 mmHg 50%
    14:00 +14°C° 0 mm 5 mps 749 mmHg 50%
    15:00 +13°C° 0 mm 5 mps 749 mmHg 54%
    16:00 +12°C° 0 mm 4 mps 749 mmHg 58%
    17:00 +11°C° 0 mm 3 mps 749 mmHg 62%
    18:00 +11°C° 0 mm 4 mps 749 mmHg 66%
    19:00 +11°C° 0 mm 4 mps 749 mmHg 71%
    20:00 +11°C° 0 mm 4 mps 749 mmHg 75%
    21:00 +11°C° 0 mm 4 mps 749 mmHg 78%
    22:00 +12°C° 0 mm 5 mps 749 mmHg 82%
    23:00 +12°C° 0 mm 5 mps 748 mmHg 85%

    17 November, Sunday

    Time Temperature Precipitation Wind Pressure Humidity
    00:00 +11°C° 0.2 mm 6 mps 748 mmHg 85%
    01:00 +13°C° 0.2 mm 6 mps 747 mmHg 85%
    02:00 +13°C° 0.2 mm 6 mps 747 mmHg 85%
    03:00 +13°C° 0.1 mm 6 mps 747 mmHg 85%
    04:00 +12°C° 0.1 mm 7 mps 746 mmHg 85%
    05:00 +14°C° 0.1 mm 7 mps 746 mmHg 85%
    06:00 +13°C° 0.4 mm 8 mps 746 mmHg 83%
    07:00 +13°C° 0.4 mm 8 mps 746 mmHg 80%
    08:00 +15°C° 0.4 mm 8 mps 746 mmHg 77%
    09:00 +15°C° 0.1 mm 8 mps 746 mmHg 73%
    10:00 +15°C° 0.1 mm 8 mps 747 mmHg 70%
    11:00 +15°C° 0.1 mm 8 mps 747 mmHg 66%
    12:00 +15°C° 0 mm 8 mps 747 mmHg 63%
    13:00 +13°C° 0 mm 8 mps 746 mmHg 60%
    14:00 +13°C° 0 mm 9 mps 746 mmHg 57%
    15:00 +12°C° 0 mm 8 mps 747 mmHg 60%
    16:00 +11°C° 0 mm 8 mps 747 mmHg 63%
    17:00 +10°C° 0 mm 8 mps 748 mmHg 65%
    18:00 +10°C° 0 mm 7 mps 748 mmHg 68%
    19:00 +10°C° 0 mm 6 mps 748 mmHg 70%
    20:00 +9°C° 0 mm 5 mps 749 mmHg 72%
    21:00 +9°C° 0.1 mm 5 mps 749 mmHg 73%
    22:00 +10°C° 0.1 mm 6 mps 749 mmHg 74%
    23:00 +10°C° 0.1 mm 6 mps 749 mmHg 75%

    18 November, Monday

    Time Temperature Precipitation Wind Pressure Humidity
    00:00 +9°C° 0 mm 5 mps 749 mmHg 76%
    01:00 +9°C° 0 mm 5 mps 748 mmHg 76%
    02:00 +9°C° 0 mm 5 mps 748 mmHg 76%
    03:00 +9°C° 0 mm 5 mps 748 mmHg 76%
    04:00 +9°C° 0 mm 5 mps 749 mmHg 76%
    05:00 +9°C° 0 mm 5 mps 749 mmHg 77%
    06:00 +11°C° 0 mm 4 mps 749 mmHg 73%
    07:00 +11°C° 0 mm 4 mps 749 mmHg 70%
    08:00 +12°C° 0 mm 3 mps 749 mmHg 67%
    09:00 +12°C° 0 mm 3 mps 749 mmHg 63%
    10:00 +13°C° 0 mm 3 mps 749 mmHg 59%
    11:00 +14°C° 0 mm 3 mps 749 mmHg 55%
    12:00 +14°C° 0 mm 3 mps 749 mmHg 56%
    13:00 +14°C° 0 mm 4 mps 748 mmHg 57%
    14:00 +14°C° 0 mm 4 mps 748 mmHg 58%
    15:00 +13°C° 0 mm 4 mps 748 mmHg 61%
    16:00 +13°C° 0 mm 4 mps 747 mmHg 63%
    17:00 +12°C° 0 mm 4 mps 747 mmHg 66%
    18:00 +12°C° 0.5 mm 5 mps 747 mmHg 73%
    19:00 +12°C° 0.5 mm 5 mps 746 mmHg 79%
    20:00 +12°C° 0.5 mm 5 mps 746 mmHg 85%
    21:00 +12°C° 0.7 mm 5 mps 746 mmHg 88%
    22:00 +12°C° 0.7 mm 5 mps 745 mmHg 90%
    23:00 +13°C° 0.7 mm 5 mps 745 mmHg 92%
    Show more